TimeEST,TemperatureF,Dew PointF,Humidity,Sea Level PressureIn,VisibilityMPH,Wind Direction,Wind SpeedMPH,Gust SpeedMPH,PrecipitationIn,Events,Conditions,WindDirDegrees,DateUTC
12:55 AM,19.9,10.9,68,30.26,10.0,SW,10.4,-,0.00,,Mostly Cloudy,230,2013-01-15 05:55:00
1:55 AM,17.1,6.1,62,30.27,10.0,West,11.5,-,N/A,,Clear,260,2013-01-15 06:55:00
2:55 AM,15.1,6.1,68,30.28,10.0,SW,15.0,19.6,N/A,,Overcast,230,2013-01-15 07:55:00
3:55 AM,12.9,5.0,71,30.29,10.0,WSW,11.5,-,N/A,,Partly Cloudy,240,2013-01-15 08:55:00
4:55 AM,12.9,5.0,71,30.28,10.0,WSW,10.4,-,N/A,,Mostly Cloudy,240,2013-01-15 09:55:00
5:55 AM,12.0,5.0,73,30.29,10.0,SW,10.4,-,N/A,,Mostly Cloudy,230,2013-01-15 10:55:00
6:12 AM,10.9,3.9,73,30.24,10.0,WSW,8.1,-,N/A,,Scattered Clouds,240,2013-01-15 11:12:00
6:55 AM,12.0,6.1,77,30.29,10.0,SW,11.5,-,N/A,,Clear,230,2013-01-15 11:55:00
7:55 AM,12.0,7.0,80,30.30,10.0,WSW,8.1,-,N/A,,Clear,250,2013-01-15 12:55:00
8:55 AM,10.9,3.9,73,30.32,10.0,SW,11.5,-,N/A,,Clear,230,2013-01-15 13:55:00
9:55 AM,12.0,1.9,64,30.32,10.0,SW,8.1,-,N/A,,Clear,220,2013-01-15 14:55:00
10:55 AM,15.1,3.0,59,30.31,10.0,SSW,9.2,-,N/A,,Clear,200,2013-01-15 15:55:00
11:55 AM,19.0,7.0,59,30.27,10.0,SSW,9.2,-,N/A,,Clear,210,2013-01-15 16:55:00
12:55 PM,23.0,10.0,58,30.24,10.0,SSW,8.1,-,N/A,,Clear,200,2013-01-15 17:55:00
1:55 PM,25.0,10.9,55,30.21,10.0,SW,11.5,23.0,N/A,,Mostly Cloudy,220,2013-01-15 18:55:00
2:55 PM,25.0,12.9,60,30.19,9.0,SSW,13.8,21.9,0.00,Snow,Light Snow,210,2013-01-15 19:55:00
3:55 PM,25.0,17.1,72,30.17,9.0,South,12.7,-,0.00,,Overcast,190,2013-01-15 20:55:00
4:55 PM,25.0,17.1,72,30.15,10.0,SSW,8.1,-,N/A,,Overcast,210,2013-01-15 21:55:00
5:55 PM,26.1,12.9,58,30.14,10.0,SW,10.4,-,N/A,,Scattered Clouds,230,2013-01-15 22:55:00
6:55 PM,24.1,12.9,62,30.13,10.0,SW,8.1,-,N/A,,Clear,230,2013-01-15 23:55:00
7:55 PM,23.0,12.0,63,30.11,10.0,SW,8.1,-,N/A,,Partly Cloudy,230,2013-01-16 00:55:00
8:55 PM,19.9,12.0,71,30.09,10.0,South,5.8,-,N/A,,Partly Cloudy,190,2013-01-16 01:55:00
9:55 PM,19.0,12.0,74,30.06,10.0,South,5.8,-,N/A,,Scattered Clouds,190,2013-01-16 02:55:00
10:55 PM,17.1,10.9,77,30.04,10.0,Calm,Calm,-,N/A,,Clear,0,2013-01-16 03:55:00
11:55 PM,17.1,12.9,84,30.01,5.0,Calm,Calm,-,N/A,,Clear,0,2013-01-16 04:55:00